Location: Poughquag
(41.6090°N, 73.6820°W)
Time: 07:54:50
(UTC-05:00)

DIWATA 2B (PO-101) - Pass Details

Date: 14 November 2025
Orbit: 563 x 574 km, 98.1° (Epoch: 07 December)

Event Time Altitude Azimuth Distance (km) Brightness Sun altitude
Exits shadow 18:28:43 - 4° (N) 2,060 ? -21.2°
Reaches altitude 10° 18:29:11 10° 2° (N) 1,866 ? -21.3°
Maximum altitude 18:33:05 49° 287° (WNW) 728 ? -22.1°
Drops below altitude 10° 18:36:58 10° 212° (SSW) 1,852 ? -22.8°
Sets 18:39:08 0° 207° (SSW) 2,744 ? -23.2°
